Volver al catálogo

STARLINK-4007

ActivoComunicacionesVLEO
NORAD 52707·PAYLOAD·🇺🇸 United States

Lanzado May 18, 2022 desde Cape Canaveral Space Force Station

Loading…

Próximos Pases (próximas 24 horas)

TLE

ActualizadoSource: CelesTrak SupGP

Época: Sep 14, 2026, 21:54 UTC

1 52707C 22053BD  26257.91298611 -.00017461  00000+0 -96648-3 0  2575
2 52707  53.2150   2.1834 0001440  50.9854 118.2378 15.13351048    19

Sigue STARLINK-4007 en tiempo real con AllMySat

Download on the App Store